Harbor Springs, MI

10:55 PM EDT on September 22, 2019 (GMT -0400)
Harbor Springs

Weather History for KMGN - August, 2019

Change the Weather History Date:

Saturday, August 24, 2019

  Actual Average (KPLN) Record (KPLN)
Temperature  
Mean Temperature 62 °F -  
Max Temperature 77 °F 75 °F 91 °F (1948)
Min Temperature 47 °F 51 °F 32 °F (1971)
Degree Days  
Heating Degree Days 3    
Growing Degree Days 12 (Base 50)    
Moisture  
Dew Point 48 °F    
Average Humidity 62    
Maximum Humidity 94    
Minimum Humidity 28    
Precipitation  
Precipitation 0.00 in - - ()
Sea Level Pressure  
Sea Level Pressure 30.32 in    
Wind  
Wind Speed 4 mph ()    
Max Wind Speed 14 mph    
Max Gust Speed 21 mph    
Visibility 9.7 miles    
Events Fog    
Averages and records for this station are not official NWS values.
T = Trace of Precipitation, MM = Missing Value Source: Averaged Metar Reports

Daily Weather History Graph

Daily Weather History Graph

Search for Another Location

Airport or City:

Astronomy

Aug. 24, 2019 Rise Set
Actual Time 6:51 AM EDT 8:32 PM EDT
Civil Twilight 6:19 AM EDT 9:03 PM EDT
Nautical Twilight 5:41 AM EDT 9:41 PM EDT
Astronomical Twilight 5:00 AM EDT 10:22 PM EDT
Moon 12:37 AM EDT (8/24) 3:55 PM EDT (8/24)
Length of Visible Light 14h 43m
Length of Day
13h 40m
Last Quarter, 39% of the Moon is Illuminated
Aug 24
Last Quarter
Aug 30
New
Sep 5
First Quarter
Sep 14
Full
Sep 21
Last Quarter

Hourly Weather History & Observations

Time (EDT) Temp. Dew Point Humidity Pressure Visibility Wind Dir Wind Speed Gust Speed Precip Events Conditions
12:16 AM 56.3 °F 48.6 °F 75% 30.30 in 10.0 mi North 5.8 mph - N/A   Clear
12:35 AM 55.9 °F 49.1 °F 78% 30.30 in 10.0 mi NNE 4.6 mph - N/A   Clear
12:36 AM 55.9 °F 49.1 °F 78% 30.30 in 10.0 mi NNE 3.5 mph - N/A   Clear
12:55 AM 55.8 °F 49.3 °F 79% 30.31 in 10.0 mi NNE 3.5 mph - N/A   Clear
1:19 AM 54.7 °F 49.3 °F 82% 30.31 in 10.0 mi Calm Calm - N/A   Clear
1:37 AM 53.8 °F 50.2 °F 88% 30.31 in 10.0 mi Calm Calm - N/A   Clear
1:55 AM 52.9 °F 50.2 °F 91% 30.31 in 10.0 mi Calm Calm - N/A   Clear
1:56 AM 52.7 °F 50.0 °F 91% 30.31 in 10.0 mi Calm Calm - N/A   Clear
2:15 AM 52.2 °F 50.2 °F 93% 30.32 in 10.0 mi Calm Calm - N/A   Clear
2:35 AM 51.4 °F 49.5 °F 93% 30.32 in 10.0 mi Calm Calm - N/A   Clear
2:58 AM 51.4 °F 49.5 °F 93% 30.32 in 10.0 mi NE 3.5 mph - N/A   Clear
3:16 AM 50.7 °F 48.7 °F 93% 30.32 in 10.0 mi NE 3.5 mph - N/A   Clear
3:35 AM 50.2 °F 48.2 °F 93% 30.32 in 10.0 mi Calm Calm - N/A   Clear
3:55 AM 50.0 °F 48.0 °F 93% 30.32 in 10.0 mi ENE 3.5 mph - N/A   Clear
4:19 AM 49.8 °F 47.8 °F 93% 30.32 in 10.0 mi ENE 3.5 mph - N/A   Clear
4:37 AM 49.6 °F 47.7 °F 93% 30.33 in 10.0 mi ENE 3.5 mph - N/A   Scattered Clouds
4:56 AM 49.3 °F 47.1 °F 92% 30.33 in 10.0 mi NE 3.5 mph - N/A   Scattered Clouds
5:15 AM 50.4 °F 48.4 °F 93% 30.34 in 5.0 mi NE 3.5 mph - N/A   Scattered Clouds
5:35 AM 49.1 °F 47.3 °F 93% 30.34 in 0.5 mi NE 3.5 mph - N/A Fog Fog
5:40 AM 49.1 °F 47.3 °F 93% 30.34 in 1.0 mi Calm Calm - N/A   Overcast
5:58 AM 48.6 °F 46.6 °F 93% 30.35 in 10.0 mi NE 3.5 mph - N/A   Scattered Clouds
6:16 AM 48.4 °F 46.4 °F 93% 30.35 in 10.0 mi Calm Calm - N/A   Clear
6:35 AM 47.7 °F 45.7 °F 93% 30.35 in 10.0 mi Calm Calm - N/A   Clear
6:55 AM 47.7 °F 45.7 °F 93% 30.36 in 10.0 mi Calm Calm - N/A   Clear
7:19 AM 48.0 °F 46.0 °F 93% 30.37 in 10.0 mi Calm Calm - N/A   Clear
7:37 AM 48.9 °F 46.8 °F 92% 30.38 in 10.0 mi Calm Calm - N/A   Clear
7:55 AM 50.9 °F 49.1 °F 94% 30.37 in 10.0 mi Calm Calm - N/A   Clear
8:15 AM 53.2 °F 51.3 °F 93% 30.38 in 10.0 mi East 3.5 mph - N/A   Clear
8:40 AM 55.9 °F 53.8 °F 92% 30.38 in 10.0 mi East 3.5 mph - N/A   Clear
8:58 AM 56.8 °F 54.3 °F 91% 30.38 in 10.0 mi East 3.5 mph - N/A   Clear
9:16 AM 59.5 °F 54.3 °F 83% 30.38 in 10.0 mi Calm Calm - N/A   Clear
9:35 AM 62.2 °F 54.7 °F 76% 30.37 in 10.0 mi East 3.5 mph - N/A   Clear
9:36 AM 62.4 °F 54.7 °F 76% 30.37 in 10.0 mi East 3.5 mph - N/A   Clear
9:55 AM 63.9 °F 54.3 °F 71% 30.37 in 10.0 mi ENE 3.5 mph - N/A   Clear
10:19 AM 65.8 °F 54.0 °F 65% 30.37 in 10.0 mi Calm Calm - N/A   Clear
10:37 AM 67.6 °F 51.3 °F 56% 30.37 in 10.0 mi East 4.6 mph - N/A   Clear
10:55 AM 69.6 °F 48.0 °F 46% 30.36 in 10.0 mi East 5.8 mph - N/A   Clear
11:15 AM 69.4 °F 43.3 °F 39% 30.36 in 10.0 mi ENE 3.5 mph - N/A   Clear
11:35 AM 70.0 °F 44.2 °F 40% 30.36 in 10.0 mi ENE 4.6 mph - N/A   Clear
11:58 AM 70.9 °F 42.3 °F 36% 30.36 in 10.0 mi Calm Calm - N/A   Clear
12:16 PM 72.1 °F 43.5 °F 36% 30.35 in 10.0 mi ESE 5.8 mph - N/A   Clear
12:35 PM 72.0 °F 44.6 °F 37% 30.35 in 10.0 mi Calm Calm - N/A   Clear
12:55 PM 72.5 °F 43.9 °F 36% 30.34 in 10.0 mi SE 4.6 mph - N/A   Clear
1:19 PM 73.0 °F 42.6 °F 33% 30.34 in 10.0 mi South 3.5 mph - N/A   Clear
1:37 PM 75.2 °F 44.1 °F 33% 30.33 in 10.0 mi ESE 6.9 mph - N/A   Clear
1:55 PM 74.7 °F 41.2 °F 30% 30.33 in 10.0 mi ESE 5.8 mph - N/A   Clear
2:15 PM 76.5 °F 41.7 °F 29% 30.32 in 10.0 mi NNE 3.5 mph - N/A   Clear
2:35 PM 75.9 °F 42.1 °F 30% 30.31 in 10.0 mi ESE 9.2 mph - N/A   Clear
2:40 PM 75.0 °F 42.1 °F 31% 30.31 in 10.0 mi ENE 4.6 mph - N/A   Clear
2:58 PM 76.1 °F 42.1 °F 30% 30.31 in 10.0 mi East 6.9 mph - N/A   Clear
3:16 PM 76.6 °F 41.9 °F 29% 30.30 in 10.0 mi NNE 4.6 mph - N/A   Clear
3:35 PM 76.6 °F 41.0 °F 28% 30.29 in 10.0 mi Calm Calm - N/A   Clear
3:55 PM 77.7 °F 42.6 °F 29% 30.29 in 10.0 mi ESE 11.5 mph - N/A   Clear
3:56 PM 77.9 °F 43.2 °F 29% 30.29 in 10.0 mi SSE 10.4 mph - N/A   Clear
4:19 PM 77.7 °F 45.1 °F 31% 30.28 in 10.0 mi WSW 3.5 mph - N/A   Clear
4:37 PM 77.7 °F 47.8 °F 35% 30.27 in 10.0 mi West 12.7 mph 17.3 mph N/A   Clear
4:55 PM 75.6 °F 48.7 °F 39% 30.28 in 10.0 mi NW 10.4 mph - N/A   Clear
5:15 PM 74.3 °F 48.6 °F 40% 30.28 in 10.0 mi NNW 6.9 mph 16.1 mph N/A   Clear
5:35 PM 74.1 °F 48.7 °F 41% 30.27 in 10.0 mi North 12.7 mph 20.7 mph N/A   Clear
5:40 PM 73.8 °F 48.9 °F 41% 30.27 in 10.0 mi NNW 8.1 mph 20.7 mph N/A   Clear
5:58 PM 73.2 °F 49.1 °F 42% 30.27 in 10.0 mi North 11.5 mph 19.6 mph N/A   Clear
6:16 PM 73.8 °F 49.3 °F 42% 30.27 in 10.0 mi North 8.1 mph - N/A   Clear
6:35 PM 73.8 °F 48.7 °F 41% 30.27 in 10.0 mi NE 6.9 mph - N/A   Clear
6:36 PM 73.9 °F 48.7 °F 41% 30.27 in 10.0 mi ENE 6.9 mph - N/A   Clear
6:55 PM 72.9 °F 48.6 °F 42% 30.27 in 10.0 mi NE 13.8 mph - N/A   Clear
7:19 PM 72.1 °F 49.3 °F 44% 30.26 in 10.0 mi ENE 10.4 mph 16.1 mph N/A   Clear
7:37 PM 70.7 °F 48.9 °F 46% 30.27 in 10.0 mi NE 10.4 mph - N/A   Clear
7:55 PM 69.8 °F 49.1 °F 48% 30.27 in 10.0 mi NE 9.2 mph - N/A   Clear
8:15 PM 68.5 °F 48.7 °F 49% 30.27 in 10.0 mi NE 8.1 mph - N/A   Clear
8:35 PM 67.1 °F 47.8 °F 50% 30.28 in 10.0 mi NE 8.1 mph - N/A   Clear
8:40 PM 66.9 °F 47.7 °F 50% 30.28 in 10.0 mi NE 8.1 mph - N/A   Clear
8:58 PM 66.2 °F 47.8 °F 52% 30.28 in 10.0 mi NE 9.2 mph - N/A   Clear
9:16 PM 65.7 °F 48.2 °F 53% 30.28 in 10.0 mi NE 9.2 mph - N/A   Clear
9:35 PM 64.6 °F 48.2 °F 55% 30.29 in 10.0 mi ENE 8.1 mph - N/A   Clear
9:55 PM 63.7 °F 47.8 °F 56% 30.29 in 10.0 mi ENE 6.9 mph - N/A   Clear
9:56 PM 63.7 °F 47.7 °F 56% 30.29 in 10.0 mi ENE 8.1 mph - N/A   Clear
10:19 PM 63.7 °F 47.3 °F 55% 30.29 in 10.0 mi ENE 8.1 mph - N/A   Clear
10:37 PM 63.5 °F 47.3 °F 56% 30.29 in 10.0 mi ENE 8.1 mph - N/A   Clear
10:55 PM 62.8 °F 46.9 °F 56% 30.29 in 10.0 mi ENE 6.9 mph - N/A   Clear
11:15 PM 61.3 °F 47.3 °F 60% 30.29 in 10.0 mi ENE 5.8 mph - N/A   Clear
11:35 PM 60.8 °F 47.3 °F 61% 30.29 in 10.0 mi ENE 5.8 mph - N/A   Clear
11:40 PM 60.6 °F 47.3 °F 61% 30.29 in 10.0 mi ENE 5.8 mph - N/A   Clear
11:58 PM 59.9 °F 47.3 °F 63% 30.29 in 10.0 mi ENE 5.8 mph - N/A   Clear